Location: Cieszkowy
(50.3290°N, 20.5336°E)
Time: 23:52:28
(UTC+00:00)

Cosmos 494 Rocket - Pass Details

Date: 15 June 2024
Orbit: 739 x 769 km, 74.1° (Epoch: 18 July)

Event Time Altitude Azimuth Distance (km) Brightness Sun altitude
Rises 00:39:26 0° 337° (NNW) 3,232 7.8 -11.6°
Reaches altitude 10° 00:41:49 10° 339° (NNW) 2,306 7.1 -11.5°
Maximum altitude 00:47:03 70° 64° (ENE) 817 4.3 -11.0°
Drops below altitude 10° 00:52:17 10° 148° (SSE) 2,304 6.2 -10.6°
Sets 00:54:40 0° 151° (SSE) 3,228 6.9 -10.4°
